CARTOSAT-2D

Last updated on Sat Dec 13 2025 00:02:31 GMT+0000 (Coordinated Universal Time)

1 41948U 17008A 25346.30397885 .00009436 00000+0 45048-3 0 9990 2 41948 97.4388 43.8076 0004656 164.3463 195.7917 15.19255444489205
UTC large
Height (km)
Speed (km/s)
/
Latitude / Longitude
Inclination (degrees)
Orbital Period (minutes)
Azimuth
Elevation
Range (km)
Doppler Factor

Next 0 passes for location: London (51.5072 / 0.1276)

Sorry there are no passes over London.